Weather History for KAIK - August, 2013

Change the Weather History Date:

Friday, August 30, 2013

  Actual Average (KAGS) Record (KAGS)
Temperature  
Mean Temperature 80 °F 79 °F  
Max Temperature 86 °F 90 °F 101 °F (1948)
Min Temperature 73 °F 68 °F 55 °F (1968)
Degree Days  
Heating Degree Days 0 0  
Month to date heating degree days 0  
Since 1 June heating degree days 0  
Since 1 July heating degree days 0  
Cooling Degree Days 14 14  
Month to date cooling degree days 468  
Year to date cooling degree days 1674  
Since 1 June cooling degree days 1391  
Growing Degree Days 30 (Base 50)    
Moisture  
Dew Point 70 °F    
Average Humidity 77    
Maximum Humidity 100    
Minimum Humidity 51    
Precipitation  
Precipitation 0.00 in 0.12 in 1.53 in (1981)
Month to date precipitation 4.20  
Year to date precipitation 30.75  
Sea Level Pressure  
Sea Level Pressure 30.02 in    
Wind  
Wind Speed 5 mph (ENE)    
Max Wind Speed 8 mph    
Max Gust Speed -    
Visibility 9 miles    
Events      
T = Trace of Precipitation, MM = Missing Value Source: NWS Daily Summary

Daily Weather History Graph

Daily Weather History Graph

Search for Another Location

Airport or City:

Trip Planner

Search our weather history database for the weather conditions in past years. The results will help you decide how hot, cold, wet, or windy it might be!

Date:

Astronomy

Aug. 30, 2013 Rise Set
Actual Time 6:59 AM EDT 7:54 PM EDT
Civil Twilight 6:33 AM EDT 8:19 PM EDT
Nautical Twilight 6:03 AM EDT 8:50 PM EDT
Astronomical Twilight 5:32 AM EDT 9:20 PM EDT
Moon 1:45 AM EDT (8/30) 4:00 PM EDT (8/30)
Length of Visible Light 13h 46m
Length of Day
12h 55m
Waning Crescent, 29% of the Moon is Illuminated
Aug 30
Waning Crescent
Sep 5
New
Sep 12
First Quarter
Sep 19
Full
Sep 26
Last Quarter

Hourly Weather History & Observations

Time (EDT) Temp. Heat Index Dew Point Humidity Pressure Visibility Wind Dir Wind Speed Gust Speed Precip Events Conditions
12:15 AM 77.0 °F - 69.8 °F 78% 30.00 in 10.0 mi ENE 4.6 mph - N/A   Scattered Clouds
12:35 AM 77.0 °F - 71.6 °F 83% 30.00 in 10.0 mi NE 3.5 mph - N/A   Clear
12:55 AM 77.0 °F - 69.8 °F 78% 30.00 in 10.0 mi NE 3.5 mph - N/A   Clear
1:15 AM 77.0 °F - 69.8 °F 78% 30.00 in 10.0 mi ENE 5.8 mph - N/A   Scattered Clouds
1:35 AM 77.0 °F - 69.8 °F 78% 30.00 in 10.0 mi East 5.8 mph - N/A   Mostly Cloudy
1:55 AM 77.0 °F - 69.8 °F 78% 30.00 in 10.0 mi East 4.6 mph - N/A   Scattered Clouds
2:15 AM 77.0 °F - 69.8 °F 78% 30.00 in 10.0 mi East 4.6 mph - N/A   Clear
2:35 AM 77.0 °F - 69.8 °F 78% 29.99 in 10.0 mi East 4.6 mph - N/A   Clear
2:55 AM 77.0 °F - 69.8 °F 78% 29.99 in 10.0 mi East 3.5 mph - N/A   Clear
3:15 AM 75.2 °F - 69.8 °F 83% 30.00 in 10.0 mi ENE 4.6 mph - N/A   Clear
3:35 AM 73.4 °F - 69.8 °F 88% 30.00 in 10.0 mi ENE 4.6 mph - N/A   Scattered Clouds
3:55 AM 73.4 °F - 71.6 °F 94% 30.00 in 10.0 mi NE 3.5 mph - N/A   Clear
4:15 AM 73.4 °F - 71.6 °F 94% 30.00 in 10.0 mi NE 3.5 mph - N/A   Clear
4:35 AM 73.4 °F - 73.4 °F 100% 30.00 in 7.0 mi ENE 4.6 mph - N/A   Clear
4:55 AM 73.4 °F - 73.4 °F 100% 30.00 in 7.0 mi ENE 5.8 mph - N/A   Clear
5:15 AM 73.4 °F - 73.4 °F 100% 30.00 in 7.0 mi ENE 6.9 mph - N/A   Clear
5:35 AM 73.4 °F - 73.4 °F 100% 30.00 in 7.0 mi ENE 8.1 mph - N/A   Clear
5:55 AM 73.4 °F - 73.4 °F 100% 30.01 in 5.0 mi ENE 5.8 mph - N/A   Scattered Clouds
6:15 AM 73.4 °F - 73.4 °F 100% 30.01 in 5.0 mi ENE 6.9 mph - N/A   Scattered Clouds
6:35 AM 73.4 °F - 73.4 °F 100% 30.02 in 5.0 mi NE 8.1 mph - N/A   Mostly Cloudy
6:55 AM 73.4 °F - 73.4 °F 100% 30.03 in 5.0 mi ENE 8.1 mph - N/A   Overcast
7:15 AM 73.4 °F - 73.4 °F 100% 30.03 in 5.0 mi East 8.1 mph - N/A   Overcast
7:35 AM 73.4 °F - 73.4 °F 100% 30.04 in 5.0 mi East 6.9 mph - N/A   Overcast
7:55 AM 73.4 °F - 73.4 °F 100% 30.04 in 5.0 mi East 8.1 mph - N/A   Overcast
8:15 AM 73.4 °F - 73.4 °F 100% 30.05 in 5.0 mi East 5.8 mph - N/A   Overcast
8:35 AM 73.4 °F - 73.4 °F 100% 30.05 in 7.0 mi East 6.9 mph - N/A   Overcast
8:55 AM 73.4 °F - 73.4 °F 100% 30.06 in 7.0 mi East 5.8 mph - N/A   Overcast
10:15 AM 75.2 °F - 73.4 °F 94% 30.08 in 5.0 mi ENE 6.9 mph - N/A   Overcast
10:35 AM 77.0 °F - 71.6 °F 83% 30.08 in 7.0 mi East 6.9 mph - N/A   Overcast
10:55 AM 77.0 °F - 69.8 °F 78% 30.08 in 10.0 mi East 6.9 mph - N/A   Overcast
11:15 AM 78.8 °F - 69.8 °F 74% 30.08 in 10.0 mi ENE 6.9 mph - N/A   Overcast
11:35 AM 78.8 °F - 69.8 °F 74% 30.08 in 10.0 mi ENE 6.9 mph - N/A   Overcast
11:55 AM 78.8 °F - 69.8 °F 74% 30.08 in 10.0 mi ENE 6.9 mph - N/A   Overcast
12:15 PM 78.8 °F - 69.8 °F 74% 30.08 in 10.0 mi East 5.8 mph - N/A   Overcast
12:35 PM 78.8 °F - 69.8 °F 74% 30.08 in 10.0 mi Calm Calm - N/A   Overcast
12:55 PM 80.6 °F 83.9 °F 69.8 °F 70% 30.07 in 10.0 mi East 8.1 mph - N/A   Overcast
1:15 PM 80.6 °F 83.9 °F 69.8 °F 70% 30.06 in 10.0 mi East 6.9 mph - N/A   Overcast
1:35 PM 80.6 °F 83.2 °F 68.0 °F 65% 30.06 in 10.0 mi Calm Calm - N/A   Overcast
1:55 PM 80.6 °F 83.2 °F 68.0 °F 65% 30.05 in 10.0 mi NNE 4.6 mph - N/A   Overcast
2:15 PM 80.6 °F 83.2 °F 68.0 °F 65% 30.05 in 10.0 mi East 6.9 mph - N/A   Mostly Cloudy
2:35 PM 82.4 °F 85.4 °F 68.0 °F 62% 30.05 in 10.0 mi East 3.5 mph - N/A   Mostly Cloudy
2:55 PM 82.4 °F 85.4 °F 68.0 °F 62% 30.04 in 10.0 mi East 3.5 mph - N/A   Mostly Cloudy
3:15 PM 82.4 °F 85.4 °F 68.0 °F 62% 30.03 in 10.0 mi Calm Calm - N/A   Scattered Clouds
3:35 PM 82.4 °F 85.4 °F 68.0 °F 62% 30.02 in 10.0 mi NNE 3.5 mph - N/A   Scattered Clouds
3:55 PM 82.4 °F 85.4 °F 68.0 °F 62% 30.01 in 10.0 mi NE 4.6 mph - N/A   Mostly Cloudy
4:15 PM 86.0 °F 89.4 °F 68.0 °F 55% 30.00 in 10.0 mi ENE 4.6 mph - N/A   Mostly Cloudy
4:35 PM 86.0 °F 89.4 °F 68.0 °F 55% 29.99 in 10.0 mi North 3.5 mph - N/A   Mostly Cloudy
4:55 PM 86.0 °F 88.2 °F 66.2 °F 51% 29.99 in 10.0 mi NNE 6.9 mph - N/A   Scattered Clouds
5:15 PM 86.0 °F 89.4 °F 68.0 °F 55% 29.99 in 10.0 mi NE 6.9 mph - N/A   Scattered Clouds
5:35 PM 86.0 °F 89.4 °F 68.0 °F 55% 29.99 in 10.0 mi North 4.6 mph - N/A   Scattered Clouds
5:55 PM 86.0 °F 88.2 °F 66.2 °F 51% 29.99 in 10.0 mi NNE 3.5 mph - N/A   Clear
6:15 PM 86.0 °F 89.4 °F 68.0 °F 55% 30.00 in 10.0 mi Calm Calm - N/A   Scattered Clouds
6:35 PM 84.2 °F 87.3 °F 68.0 °F 58% 29.99 in 10.0 mi ENE 3.5 mph - N/A   Mostly Cloudy
6:55 PM 82.4 °F 85.4 °F 68.0 °F 62% 30.00 in 10.0 mi ESE 3.5 mph - N/A   Mostly Cloudy
7:15 PM 82.4 °F 85.4 °F 68.0 °F 62% 30.00 in 10.0 mi East 3.5 mph - N/A   Mostly Cloudy
7:35 PM 80.6 °F 83.2 °F 68.0 °F 65% 30.00 in 10.0 mi East 3.5 mph - N/A   Mostly Cloudy
7:55 PM 80.6 °F 83.2 °F 68.0 °F 65% 30.00 in 10.0 mi East 4.6 mph - N/A   Clear
8:15 PM 78.8 °F - 69.8 °F 74% 30.00 in 10.0 mi East 3.5 mph - N/A   Clear
8:35 PM 78.8 °F - 68.0 °F 69% 30.01 in 10.0 mi ESE 3.5 mph - N/A   Clear
8:55 PM 78.8 °F - 68.0 °F 69% 30.01 in 10.0 mi East 4.6 mph - N/A   Clear
9:15 PM 78.8 °F - 68.0 °F 69% 30.01 in 10.0 mi East 4.6 mph - N/A   Clear
9:35 PM 78.8 °F - 66.2 °F 65% 30.01 in 10.0 mi ESE 4.6 mph - N/A   Clear
9:55 PM 77.0 °F - 68.0 °F 74% 30.01 in 10.0 mi SE 3.5 mph - N/A   Clear
10:15 PM 77.0 °F - 68.0 °F 74% 30.01 in 10.0 mi Calm Calm - N/A   Clear
10:35 PM 77.0 °F - 68.0 °F 74% 30.01 in 10.0 mi ESE 4.6 mph - N/A   Clear
10:55 PM 75.2 °F - 68.0 °F 78% 30.01 in 10.0 mi ESE 3.5 mph - N/A   Clear
11:15 PM 75.2 °F - 68.0 °F 78% 30.01 in 10.0 mi SE 3.5 mph - N/A   Clear
11:35 PM 73.4 °F - 68.0 °F 83% 30.00 in 10.0 mi SE 3.5 mph - N/A   Clear
11:55 PM 73.4 °F - 68.0 °F 83% 30.01 in 10.0 mi SSE 3.5 mph - N/A   Clear